PEGASUS DEB

Satellite information

Favourite Embed

Satellite Type and Status

DEBRISIN ORBIT

Key statistics

Satellite PEGASUS DEB at a glance.

Uptime

11480

Days in orbit

Revolutions

≈ 14.9

Per day

Orbit

LEO

Low Earth Orbit

Inclination

81.6

Latest

Satellite identification and parameters

Extended collection of information and parameters for PEGASUS DEB.

Object identification

Identified? True

Debris? True

Object name: PEGASUS DEB

International designator: 1994-029AFV

Object number (NORAD): 39922

Object ID (CCSDS): 39922

Country: UNITED STATES OF AMERICA (US)

Current information (Y/N): Y

RCS size: SMALL

Orbital parameters

Period: 96.726 minutes

Inclination: 81.5875 deg

SMA: 6980.013 km

Apoapsis: 684.829 km

Periapsis: 518.926 km

RAAN: 230.4721 deg

Eccentricy: 0.01188418

Argument of periapsis: 36.3102 deg

Mean anomaly: 324.6102 deg

Mean motion: 14.88738568 rev/day

Mean motion (dot): 0.00022009 rev/day2

B* drag term: 0.0020573207 1/REarth

Two-line elements (TLE)

Creation date: Oct. 20, 2025, 10:26 a.m.

Reference frame: TEME

Reference center: EARTH

Epoch: Oct. 20, 2025, 3:34 a.m. UTC

TLE line 0: 0 PEGASUS DEB

TLE line 1: 1 39922U 94029AFV 25293.14882347 .00022009 00000-0 20573-2 0 9999

TLE line 2: 2 39922 81.5875 230.4721 0118842 36.3102 324.6102 14.88738568609022

Live tracking on map

Real-time ground track for satellite PEGASUS DEB.

In-orbit conjunctions

A list of the most updated potential collisions computed for object PEGASUS DEB.

Target Orbit TCA Probability of collision Miss distance Type
CZ-6 R/B LEO 2025-02-07 21:31:25 0.0001495763 238.0 (m) ROCKET BODY
DELTA 4 DEB SSO 2024-08-04 03:04:10 0.0001308714 366.0 (m) DEBRIS

Associated space launch

PEGASUS DEB was lifted into orbit during the mission ‘Pegasus HAPS | Space Test Experiments Platform 2 (STEP-2)’, on board a Pegasus HAPS space rocket.

The launch took place on May 19, 1994, 5:03 p.m. from Edwards Air Force Base.

For more information about the launch, click the button.

Launch to space Pegasus HAPS | Space Test Experiments Platform 2 (STEP-2)
Pegasus HAPS | Space Test Experiments Platform 2 (STEP-2)

Agency: N/A

Status: Launch Successful

Launch date: May 19, 1994, 5:03 p.m. UTC

Rocket: Pegasus HAPS

Launch pad: Edwards Air Force Base

Location: Air launch to orbit

...

Latest news about this satellite

There are no fresh news available about this satellite. Check back as we update our databases every day.


Newsletter sign-up

Weekly statistics, charts and insights to help you stay on top of the space industry.